[[{"header":{"parameterUnit":"m.s-1","parameterCategory":1,"la1":30.2991,"la2":30.254,"lo1":-89.0895,"lo2":-89.0444,"dy":0.0017,"dx":0.0017,"nx":28,"ny":28,"refTime":"2023-07-24T09:00:00:Z","depth":0,"parameterNumber":2,"parameterNumberName":"U-component_of_WINDS"},"data":[0,0,0,0,0,0,0,0,0,0,0,0,0,0,0,0,0,0,0,0,0,0,0,0,0,0,0,0,0,0,0,0,0,0,0,0,0,0,0,0,0,0,0,0,0,0,0,0,0,0,0,0,0,0,0,0,0,0,2.6589,2.659,0,2.6692,2.6693,2.6694,2.6682,2.668,2.6679,2.6677,2.6782,2.6787,2.6791,0,0,0,0,0,0,0,0,0,0,0,0,0,2.638,2.6384,2.6589,2.659,2.6592,2.6692,2.6693,2.6694,2.6682,2.668,2.6678,2.6676,2.6781,2.6786,2.6791,0,0,0,0,0,0,0,0,0,0,0,0,0,2.6476,2.6386,2.6589,2.6598,2.6599,2.6691,2.6693,2.6695,2.6683,2.668,2.6678,2.6675,2.6779,2.6786,2.6792,2.6882,0,0,2.6812,2.6815,0,0,0,0,0,0,0,0,2.647,2.6484,2.6595,2.6597,2.6599,2.6672,2.6658,2.6757,2.6683,2.6651,2.6677,2.6674,2.6747,2.6756,2.6781,2.6887,2.6891,2.6812,2.6816,2.6819,2.6821,0,0,0,0,0,0,0,2.6464,2.6479,2.663,2.6597,2.6599,2.6596,2.6607,2.6677,2.6712,2.6654,2.6653,2.6665,2.6748,2.6775,2.6784,2.6893,2.6812,2.6818,2.6822,2.6825,2.7073,2.7075,0,0,0,0,0,0,2.6455,2.6474,2.6626,2.6633,2.6527,2.6601,2.6614,2.6651,2.6711,2.6718,2.6667,2.6664,2.6765,2.6776,2.6787,2.6893,2.6819,2.6825,2.6829,2.707,2.7073,2.7076,0,0,0,0,0,0,2.6451,2.6469,2.6622,2.6553,2.6572,2.6608,2.665,2.6654,2.6681,2.6721,2.6728,2.6688,2.6763,2.6778,2.6857,2.6896,2.6828,2.6834,2.7067,2.7071,2.7075,2.7107,0,0,0,0,0,0,2.6445,2.6467,2.6503,2.6554,2.6576,2.6691,2.6652,2.6658,2.6692,2.6689,2.6743,2.6749,2.6763,2.6848,2.6864,2.6904,2.6839,2.7063,2.7069,2.7073,2.7102,2.7111,2.7119,0,0,0,0,0,2.6437,2.6508,2.6504,2.6523,2.6621,2.6694,2.6706,2.672,2.6695,2.673,2.6756,2.6747,2.689,2.6856,2.6874,2.6917,2.7061,2.7067,2.7073,2.7098,2.711,2.7119,0,0,0,0,0,0,2.6462,2.6515,2.6512,2.6602,2.6643,2.6692,2.6736,2.6732,2.6782,2.6777,2.6792,2.6805,2.6884,2.6909,2.687,2.7005,2.6972,2.6982,2.6985,2.6996,2.7004,2.6995,2.6845,0,0,0,0,0,2.6477,2.6532,2.6577,2.6652,2.6672,2.6701,2.6733,2.674,2.6784,2.6801,2.6833,2.6875,2.6929,2.6964,2.7017,2.7107,2.7116,2.7145,2.7153,2.716,2.7167,2.7213,2.7225,2.7096,2.7096,2.7096,0,0,2.651,2.6547,2.6581,2.6657,2.669,2.6745,2.6716,2.6777,2.6817,2.6811,2.6886,2.6911,2.6959,2.7043,2.7081,2.7066,2.7205,2.7168,2.7173,2.7177,2.722,2.7232,2.7243,2.71,2.7099,2.7099,0,0,2.6598,2.6633,2.6697,2.673,2.678,2.6798,2.6813,2.6862,2.6877,2.6954,2.6949,2.6998,2.7091,2.7124,2.7154,2.7251,2.7244,2.7268,2.7311,2.7355,2.7365,2.7374,2.7406,2.7417,2.7276,2.7276,2.7276,0,2.6633,2.6716,2.673,2.6791,2.6823,2.6819,2.6883,2.6915,2.6979,2.7001,2.6983,2.7098,2.7131,2.722,2.7244,2.7269,2.7285,2.7261,2.7363,2.7372,2.7381,2.7411,2.7423,2.7279,2.7278,2.7278,2.7278,0,2.6754,2.6812,2.6858,2.6919,2.6957,2.7019,2.7041,2.7078,2.7081,2.71,2.7176,2.7215,2.7273,2.7296,2.7301,2.7385,2.7374,2.736,2.7326,2.7395,2.7423,2.7435,2.7282,2.7281,2.728,2.728,0,0,2.686,2.6926,2.6942,2.6968,2.7022,2.7067,2.7128,2.7184,2.7213,2.7258,2.7307,2.7386,2.7372,2.7405,2.7413,2.7453,2.7523,2.7433,2.7434,2.7445,2.7614,2.7622,2.7636,2.7519,2.7522,2.7523,2.7609,0,2.695,2.7057,2.707,2.7165,2.7217,2.7213,2.7266,2.7303,2.7323,2.7369,2.7391,2.7444,2.7424,2.7443,2.7482,2.7506,2.7556,2.75,2.7563,2.7565,2.7548,2.7651,2.7661,2.7739,2.7621,2.7622,2.7624,0,2.707,2.7115,2.7215,2.7258,2.728,2.7327,2.7378,2.7423,2.7465,2.7476,2.7512,2.7515,2.7576,2.7542,2.7625,2.7586,2.7613,2.7628,2.7632,2.7636,2.7597,2.7655,2.7765,2.7776,2.7642,2.7641,2.7639,0,2.7132,2.7219,2.7288,2.7311,2.7365,2.7397,2.7421,2.7461,2.7493,2.7537,2.7558,2.7609,2.7637,2.7676,2.7692,2.7666,2.7773,2.7741,2.7782,2.7781,2.7802,2.78,2.7915,2.7825,2.7825,2.7824,2.7824,0,2.7229,2.7289,2.7316,2.7359,2.7425,2.744,2.7505,2.7527,2.7562,2.7608,2.7609,2.7652,2.7672,2.7717,2.773,2.7795,2.7808,2.7817,2.7819,2.7816,2.7814,2.7831,2.7825,2.7828,2.7827,2.7826,2.7826,0,2.7309,2.733,2.7405,2.7449,2.7461,2.7508,2.7545,2.7585,2.7604,2.7661,2.7676,2.7705,2.7758,2.7778,2.7844,2.7852,2.7926,2.7926,2.7911,2.7911,2.7949,2.7944,2.8077,2.8094,2.7995,2.7996,2.7997,0,2.7368,2.7414,2.7462,2.7492,2.7516,2.7566,2.7598,2.7614,2.7647,2.7696,2.773,2.7783,2.7826,2.7911,2.7938,2.7987,2.7986,2.8029,2.7993,2.7986,2.7982,2.7978,2.7981,2.8035,2.8036,2.8036,2.8037,0,2.747,2.7477,2.7523,2.7572,2.761,2.7649,2.7688,2.7712,2.7734,2.777,2.7824,2.7857,2.7923,2.7975,2.8025,2.8049,2.8045,2.8048,2.806,2.8055,2.8043,2.8046,2.7926,2.8045,2.8044,2.8043,2.8043,2.8043,2.7539,2.7578,2.7616,2.7667,2.7697,2.7732,2.7771,2.7794,2.7839,2.7893,2.79,2.7957,2.7995,2.8062,2.8088,2.8132,2.812,2.8138,2.8141,2.8145,2.8145,2.8038,2.8142,2.8141,2.8141,2.8141,2.8141,0,2.7637,2.7661,2.7708,2.776,2.7799,2.7793,2.7835,2.7867,2.7917,2.7953,2.7995,2.8055,2.8105,2.8135,2.8184,2.8213,2.8213,2.8225,2.8222,2.8226,2.8155,2.8138,2.8224,2.8224,2.8224,2.8224,2.8224,2.8224,2.7693,2.7757,2.7769,2.7847,2.7871,2.7927,2.795,2.7982,2.801,2.8077,2.8118,2.8137,2.817,2.8221,2.8266,2.8273,2.829,2.8303,2.8309,2.8241,2.8232,2.8224,2.8208,2.8307,2.8307,2.8376,2.8376,2.8377]},{"header":{"parameterUnit":"m.s-1","parameterCategory":1,"la1":30.2991,"la2":30.254,"lo1":-89.0895,"lo2":-89.0444,"dy":0.0017,"dx":0.0017,"nx":28,"ny":28,"refTime":"2023-07-24T09:00:00:Z","depth":0,"parameterNumber":3,"parameterNumberName":"V-component_of_WINDS"},"data":[0,0,0,0,0,0,0,0,0,0,0,0,0,0,0,0,0,0,0,0,0,0,0,0,0,0,0,0,0,0,0,0,0,0,0,0,0,0,0,0,0,0,0,0,0,0,0,0,0,0,0,0,0,0,0,0,0,0,2.5119,2.5119,0,2.5096,2.5095,2.5095,2.5028,2.5027,2.5025,2.5024,2.5,2.5001,2.5001,0,0,0,0,0,0,0,0,0,0,0,0,0,2.5104,2.5105,2.5119,2.5119,2.5118,2.5096,2.5095,2.5095,2.5028,2.5027,2.5025,2.5023,2.5,2.5001,2.5001,0,0,0,0,0,0,0,0,0,0,0,0,0,2.5099,2.5105,2.5119,2.5082,2.5079,2.5096,2.5095,2.5095,2.5029,2.5027,2.5024,2.5022,2.4999,2.5001,2.5002,2.5052,0,0,2.5005,2.5005,0,0,0,0,0,0,0,0,2.5099,2.5099,2.5088,2.5085,2.5081,2.5063,2.5081,2.5081,2.5029,2.5048,2.5024,2.5021,2.5023,2.5022,2.5022,2.5051,2.505,2.5005,2.5006,2.5006,2.5006,0,0,0,0,0,0,0,2.51,2.51,2.511,2.5088,2.5084,2.5067,2.5063,2.5081,2.5048,2.5046,2.5041,2.5039,2.502,2.5021,2.5021,2.505,2.5005,2.5006,2.5007,2.5007,2.5116,2.5118,0,0,0,0,0,0,2.5105,2.5101,2.511,2.5109,2.5085,2.5069,2.5065,2.5071,2.5047,2.5042,2.5041,2.5036,2.502,2.502,2.502,2.5076,2.5006,2.5007,2.5008,2.5114,2.5117,2.5119,0,0,0,0,0,0,2.5105,2.5107,2.5111,2.5103,2.5103,2.5071,2.5078,2.5071,2.5072,2.5044,2.5037,2.5048,2.5019,2.5018,2.5044,2.5074,2.5008,2.5009,2.5111,2.5115,2.5118,2.5189,0,0,0,0,0,0,2.5105,2.5107,2.5126,2.5104,2.5103,2.5137,2.508,2.5073,2.5074,2.5068,2.5049,2.5043,2.5017,2.5043,2.5045,2.5074,2.5009,2.5109,2.5113,2.5117,2.5184,2.5194,2.5203,0,0,0,0,0,2.5105,2.5148,2.5128,2.5129,2.5127,2.5138,2.5138,2.5106,2.5077,2.5096,2.5077,2.5044,2.5071,2.5046,2.5048,2.5078,2.5106,2.5112,2.5117,2.5179,2.5192,2.5203,0,0,0,0,0,0,2.5175,2.5144,2.5122,2.5159,2.5152,2.5127,2.515,2.5121,2.5122,2.5116,2.5077,2.5073,2.5104,2.5094,2.5067,2.5124,2.5083,2.5089,2.513,2.5142,2.5151,2.5153,2.501,0,0,0,0,0,2.5194,2.5206,2.5179,2.5215,2.5212,2.5182,2.5186,2.5162,2.5153,2.5149,2.5133,2.5125,2.5131,2.5136,2.514,2.5182,2.5176,2.5203,2.5213,2.5221,2.5226,2.5245,2.5257,2.5136,2.5136,2.5136,0,0,2.5235,2.522,2.523,2.5228,2.522,2.5232,2.518,2.5196,2.5204,2.5152,2.5174,2.5162,2.5151,2.5184,2.5198,2.5176,2.5259,2.5228,2.5235,2.5235,2.5252,2.5263,2.5273,2.5139,2.5139,2.5138,0,0,2.5316,2.5306,2.5334,2.5326,2.5314,2.5293,2.53,2.5279,2.5268,2.5291,2.5251,2.526,2.5273,2.5265,2.5263,2.534,2.5309,2.5342,2.5393,2.5412,2.5422,2.543,2.5455,2.5465,2.5348,2.5348,2.5348,0,2.5368,2.5385,2.5351,2.5369,2.5369,2.5322,2.5348,2.5343,2.5333,2.5333,2.5309,2.5322,2.5311,2.5341,2.536,2.536,2.5366,2.5344,2.5423,2.5431,2.5438,2.5462,2.5472,2.5352,2.5351,2.5351,2.5351,0,2.5449,2.5462,2.5486,2.5476,2.5478,2.5501,2.547,2.5476,2.5452,2.5434,2.5456,2.5441,2.5441,2.5446,2.5424,2.5473,2.5459,2.543,2.5387,2.5454,2.5476,2.5485,2.5358,2.5356,2.5355,2.5354,0,0,2.5573,2.5543,2.5552,2.5547,2.5529,2.5538,2.5558,2.5557,2.5562,2.5557,2.5572,2.5582,2.5555,2.5552,2.5528,2.5545,2.5604,2.5513,2.5512,2.5529,2.5655,2.5676,2.5687,2.5584,2.5586,2.5587,2.5655,0,2.5647,2.5679,2.5648,2.5686,2.5696,2.5651,2.5668,2.5659,2.5642,2.5648,2.5629,2.5636,2.56,2.5598,2.5613,2.5594,2.5628,2.5589,2.5596,2.5596,2.5598,2.5698,2.5721,2.5786,2.5664,2.5665,2.5666,0,2.5738,2.5736,2.5775,2.5753,2.5756,2.5772,2.5767,2.5774,2.5762,2.5748,2.5746,2.5716,2.5733,2.5692,2.5714,2.5687,2.5688,2.5679,2.5681,2.5679,2.5634,2.5698,2.5806,2.5816,2.5679,2.5678,2.5677,0,2.5822,2.5829,2.5852,2.5849,2.5825,2.5836,2.5827,2.5813,2.5814,2.581,2.581,2.5809,2.5808,2.5807,2.5778,2.5751,2.5802,2.576,2.579,2.5791,2.5802,2.5801,2.5911,2.5806,2.5806,2.5806,2.5805,0,2.5907,2.5932,2.5889,2.5903,2.5929,2.5894,2.592,2.5906,2.5894,2.5903,2.5865,2.5875,2.5836,2.5842,2.5819,2.5839,2.584,2.5828,2.5821,2.5831,2.5832,2.583,2.5824,2.5808,2.5808,2.5807,2.5807,0,2.6005,2.5977,2.5999,2.5974,2.5968,2.5988,2.5966,2.5978,2.5958,2.5971,2.5972,2.5942,2.5946,2.5917,2.5917,2.5901,2.5932,2.5918,2.5936,2.5931,2.5962,2.5959,2.6073,2.6085,2.5974,2.5975,2.5976,0,2.606,2.6078,2.6054,2.6058,2.605,2.6057,2.6057,2.6023,2.6025,2.6012,2.6025,2.6026,2.6025,2.6034,2.6012,2.6011,2.5996,2.6035,2.5995,2.6003,2.5994,2.5992,2.5993,2.6043,2.6045,2.6046,2.6047,0,2.6161,2.6146,2.6148,2.6145,2.6146,2.6143,2.6136,2.6141,2.6104,2.6108,2.6112,2.6111,2.611,2.6111,2.6105,2.6094,2.6064,2.606,2.6067,2.6075,2.6084,2.6078,2.5957,2.6057,2.6056,2.6055,2.6055,2.6054,2.6237,2.625,2.6235,2.6238,2.623,2.6224,2.6233,2.6214,2.6217,2.6213,2.6193,2.62,2.6186,2.6175,2.6167,2.6172,2.6153,2.6163,2.6165,2.6168,2.6172,2.6085,2.6171,2.6171,2.617,2.617,2.617,0,2.6334,2.6322,2.6325,2.6317,2.6319,2.6291,2.6281,2.6285,2.6292,2.6281,2.6281,2.6285,2.6285,2.6263,2.626,2.6268,2.6254,2.6269,2.6267,2.6264,2.6191,2.6184,2.628,2.628,2.628,2.628,2.628,2.628,2.6385,2.6404,2.6387,2.6402,2.639,2.6396,2.6393,2.6387,2.6379,2.6384,2.6385,2.637,2.6354,2.635,2.6349,2.6342,2.6342,2.6361,2.6349,2.6281,2.627,2.626,2.6253,2.6362,2.6362,2.6422,2.6423,2.6423]}]]